Location: Ainslie (historical)
(32.4485°N, 83.4716°W)
Time: 01:54:57
(UTC+00:00)

Daily predictions for brighter satellites

Satellite Brightness Start Highest point End
(mag) Time Altitude Azimuth Time Altitude Azimuth Time Altitude Azimuth
Cosmos 2263 Rocket 3.4 00:00:10 10° SW 00:05:29 47° WNW 00:10:51 10° N
Delta 128 4.4 00:00:41 10° W 00:05:44 47° S 00:10:12 10° ESE
MOS 1 Rocket 3.8 00:02:11 10° NE 00:06:01 30° E 00:09:47 10° SSE
Cosmos 1464 Rocket 4.5 00:01:17 10° SSE 00:06:46 36° E 00:12:17 10° NNE
SL-16 R/B 4.3 00:03:05 10° NW 00:07:58 30° WSW 00:12:50 10° SSW
SL-24 R/B 4.3 00:04:21 10° S 00:08:37 77° WSW 00:13:07 10° NNW
BREEZE-M DEB (TANK) 2.5 00:07:48 10° SW 00:10:13 87° SE 00:15:22 10° NE
Cosmos 1782 Rocket 3.7 00:06:25 10° S 00:10:48 84° W 00:15:15 10° N
Cosmos 1844 Rocket 3.3 00:06:55 10° SSE 00:11:49 33° ESE 00:16:44 10° NE
Tsikada Rocket 4.5 00:10:45 10° NNW 00:16:49 65° W 00:22:55 10° S
CZ-2D R/B 3.5 00:13:18 10° S 00:17:10 75° W 00:21:04 10° NNW
ISS -1.1 00:14:53 10° W 00:17:19 18° NW 00:19:46 10° NNE
Cosmos 2151 Rocket 4.5 00:15:58 10° SSE 00:19:41 27° E 00:23:26 10° NNE
Cosmos 2084 Rocket 3.6 00:18:50 10° NNW 00:23:17 63° ENE 00:27:46 10° SE
Cosmos 2150 Rocket 4.3 00:18:38 10° S 00:23:42 47° ESE 00:28:52 10° NNE
USA 234 3.7 00:20:58 10° ENE 00:26:58 38° SE 00:32:57 10° SSW
Cosmos 1125 Rocket 4.2 00:23:28 10° SSE 00:28:06 32° E 00:32:47 10° NE
CZ-2C R/B 1.3 00:27:05 10° WNW 00:30:41 54° N 00:32:43 22° ENE
Cosmos 1943 3.1 00:26:22 10° NNW 00:32:02 82° ENE 00:37:42 10° SSE
Cosmos 1891 Rocket 4.4 00:27:42 10° S 00:33:50 69° E 00:39:53 10° NNE
CSL-04 Debris 4.1 00:29:22 10° SSE 00:34:43 73° ENE 00:40:05 10° N
Exosat Rocket 4.2 00:30:13 10° S 00:36:03 39° ESE 00:40:49 10° NE
NOSS 3-4 (A) 4.1 00:32:37 10° SSE 00:37:28 27° ESE 00:42:16 11° NE
NOSS 3-4 (C) 4.1 00:32:46 10° SSE 00:37:34 27° ESE 00:41:56 12° ENE
CSL-04 Rocket 3.6 00:36:07 10° SSE 00:41:30 80° ENE 00:46:59 10° N
Cosmos 1975 Rocket 3.1 00:37:13 10° N 00:41:32 77° W 00:45:50 10° S
Shenzhou-11 Module 3.2 00:46:01 10° SW 00:46:55 20° SSW 00:46:55 20° SSW
Meteor 1-15 Rocket 4.4 00:45:55 10° SSE 00:51:11 45° E 00:56:33 10° NNE
Cosmos 1603 4.5 00:48:24 10° NNW 00:53:51 52° WSW 00:59:15 10° S
HJ-1C 3.7 00:52:43 11° S 00:55:51 65° W 00:59:07 10° NNW
H-2A R/B 1.9 00:51:31 10° SSE 00:56:26 87° WSW 01:01:29 10° NNW
ATLAS 2AS CENTAUR R/B 3.2 00:52:20 10° S 00:59:37 44° ESE 01:07:03 10° NE
Nadezhda 4 Rocket 4.0 00:58:55 10° N 01:04:53 53° E 01:07:55 28° SE
Cosmos 2034 Rocket 3.9 00:58:42 10° S 01:05:04 82° E 01:11:27 10° N
CZ-4 R/B 4.2 01:07:58 10° SW 01:11:04 20° W 01:14:11 10° NW
CENTAUR R/B 4.0 01:04:58 10° N 01:12:10 31° NE 01:14:15 28° ENE
GOES 2 Rocket 3.3 01:08:14 10° WSW 01:12:14 47° S 01:12:20 47° S
Okean 1 Rocket 4.4 01:16:18 28° NNE 01:16:18 28° NNE 01:18:34 10° NNE
Okean 2 Rocket 4.4 01:11:32 10° SSW 01:15:46 40° W 01:20:01 10° N
Ariane Rocket 2.9 01:16:43 55° ESE 01:17:27 62° ENE 01:22:27 10° N
Cosmos 1707 3.9 01:17:06 10° NNW 01:20:44 42° W 01:23:09 19° SSW
ARGOS 3.5 01:20:48 12° S 01:25:45 61° W 01:31:05 10° NNW
USA 238 DEB 4.1 01:21:02 10° NNW 01:28:07 50° NE 01:29:18 46° E
USA 238 4.1 01:21:09 10° NNW 01:28:13 49° NE 01:29:22 46° E
DELTA 2 R/B (1) 3.6 01:22:49 10° WNW 01:28:19 65° SSW 01:29:07 57° SSE
In-Cosmos 22 4.4 01:25:51 10° NNW 01:31:07 65° W 01:34:17 25° S
SL-08 RB Rocket 3.9 01:30:56 53° SSW 01:31:50 69° W 01:36:24 10° NNW
Cosmos 1634 Rocket 4.0 01:37:16 58° ENE 01:37:16 58° ENE 01:42:35 10° NNE
CZ-2C R/B 3.2 01:31:23 10° N 01:36:52 62° WNW 01:42:23 10° SSW
Cosmos 1536 Rocket 4.3 01:41:22 10° NNW 01:45:33 51° W 01:45:33 51° W
Cosmos 2285 Rocket 4.5 01:40:45 10° SSW 01:46:55 58° WNW 01:53:10 10° N
NOSS 3-2 (A) 4.0 01:47:17 10° NNW 01:55:15 81° ENE 01:56:29 68° SE
Meteor 2-13 Rocket 4.4 01:49:46 10° N 01:55:29 78° N 01:55:29 78° N
Cosmos 1092 Rocket 4.1 01:59:34 10° N 02:05:05 70° NW 02:05:05 70° NW
USA 234 4.0 02:04:41 15° NNE 02:09:57 50° NW 02:16:12 10° WSW
CZ-2C R/B 4.3 02:06:56 10° WNW 02:07:04 11° WNW 02:07:04 11° WNW
Milstar 3 Cent rocket 3.7 02:11:06 10° WSW 02:14:14 28° WSW 02:14:14 28° WSW
BREEZE-M DEB (TANK) 4.5 02:09:09 10° NW 02:22:38 73° WNW 02:22:38 73° WNW
NOSS 3-2 (C) 4.2 02:22:58 10° NNW 02:29:49 71° NNW 02:29:49 71° NNW
ATLAS 2AS CENTAUR R/B 4.2 02:43:26 10° WSW 02:50:40 38° NW 02:57:58 10° NNE
CENTAUR R/B 3.8 02:55:03 10° NW 03:01:26 53° WNW 03:01:26 53° WNW
USA 267 4.3 08:18:19 10° NNE 08:22:28 35° N 08:22:28 35° N
MSX 4.2 08:42:08 10° NNE 08:47:06 61° NE 08:47:06 61° NE
Cosmos 1980 Rocket 3.8 08:52:47 25° N 08:52:47 25° N 08:55:19 10° N
Cosmos 2322 Rocket 3.2 08:55:32 36° SE 08:56:54 42° ESE 09:02:13 10° NE
BREEZE-M DEB (TANK) 3.9 08:55:57 66° W 08:56:59 75° NW 09:01:28 10° NE
Cosmos 2263 Rocket 3.7 08:58:15 10° N 09:03:24 35° ENE 09:08:33 10° SE
SL-16 R/B 2.4 09:05:31 62° SE 09:06:07 67° ESE 09:11:44 10° NNE
SL-4 R/B 3.2 09:08:18 45° NE 09:08:18 45° NE 09:11:37 10° NE
DELTA 4 R/B 4.5 09:03:12 41° WSW 09:09:57 62° SSW 09:16:15 10° ESE
Chandra Rocket (1) 4.3 09:05:32 40° W 09:11:45 63° SSW 09:18:08 10° ESE
Cosmos 1934 Rocket 4.0 09:07:42 10° NNW 09:12:48 59° NW 09:12:48 59° NW
Meteor 1-10 Rocket 4.2 09:17:09 56° S 09:18:28 89° ESE 09:24:20 10° N
Cosmos 1869 Rocket 4.0 09:17:39 10° N 09:21:56 58° E 09:26:10 10° SSE
IDEFIX/ARIANE 42P 4.0 09:17:27 10° N 09:20:03 25° NNW 09:20:03 25° NNW
CZ-2C R/B 2.8 09:17:07 10° NNE 09:22:15 66° E 09:24:58 28° S
Cosmos 1763 Rocket 3.4 09:21:34 64° S 09:22:24 85° ESE 09:27:44 10° NNE
IRIDIUM 106 4.5 09:22:12 10° N 09:27:25 72° E 09:32:36 10° S
Cosmos 967 Rocket 4.4 09:27:03 40° SSW 09:29:36 87° ESE 09:36:04 10° NNE
SJ 16-02 1.8 09:27:11 10° N 09:31:31 61° ENE 09:35:52 10° SSE
Meteor 2-6 Rocket 4.3 09:32:38 53° W 09:32:43 53° W 09:38:21 10° N
CZ-4B R/B 4.4 09:31:06 10° ESE 09:33:06 16° ENE 09:35:06 10° NNE
H-2A R/B 2.0 09:29:02 10° SSE 09:33:21 84° ENE 09:37:47 10° N
PSLV R/B 3.3 09:30:24 10° N 09:34:35 84° WNW 09:34:43 82° WSW
Meteor 1-5 Rocket 4.0 09:31:35 10° N 09:36:57 89° W 09:42:26 10° S
Cosmos 1238 Rocket 4.1 09:33:00 10° NNW 09:39:01 44° W 09:39:04 44° W
Cosmos 1605 Rocket 3.9 09:34:43 10° NNW 09:41:03 66° W 09:47:21 10° S
Skynet4D Del rocket 4.0 09:42:00 41° SW 09:43:11 47° S 09:48:52 10° ESE
Landsat 5 3.5 09:39:24 10° S 09:43:53 70° W 09:48:23 10° NNW
ERS-2 2.6 09:42:51 10° SSE 09:46:27 61° ENE 09:50:04 10° N
Cosmos 540 Rocket 3.6 09:44:36 13° S 09:49:09 74° ESE 09:54:19 10° NNE
PAYLOAD A 3.9 09:44:47 10° N 09:49:21 53° WNW 09:50:29 42° WSW
Cosmos 468 Rocket 4.4 09:50:05 40° W 09:50:54 43° WNW 09:55:55 10° N
Cosmos 990 Rocket 4.2 09:47:10 10° NNW 09:52:21 71° ENE 09:57:33 10° SSE
SL-19 R/B 4.4 09:48:09 10° NNE 09:52:38 81° ESE 09:55:27 18° S
X-37B 3.4 09:51:15 10° NNW 09:52:43 12° NNE 09:54:11 10° NE
ALOS 2.8 09:57:25 10° NNE 10:02:02 61° E 10:06:37 10° S
Cosmos 1484 Rocket 3.3 09:58:09 10° NNE 10:02:07 62° E 10:06:04 10° S
Cosmos 1727 Rocket 4.3 10:03:35 12° SSW 10:09:05 43° W 10:15:05 10° N
Cosmos 1536 2.8 10:05:03 10° N 10:09:08 86° E 10:13:11 10° S
Cosmos 1437 Rocket 3.6 10:07:25 10° S 10:11:03 49° E 10:14:44 10° NNE
Meteor 1-31 Rocket 3.0 10:09:50 10° NNE 10:13:40 70° ESE 10:17:29 10° S
DASH 4.0 10:14:07 21° WSW 10:15:27 23° SW 10:18:03 10° SSE
Meteor 1-11 Rocket 3.7 10:11:04 10° NNW 10:16:42 60° W 10:22:11 10° S
Cosmos 2100 Rocket 4.0 10:11:22 10° N 10:17:46 87° W 10:24:07 10° S
Meteor 1-27 Rocket 4.2 10:15:18 10° SSW 10:20:52 42° WNW 10:26:27 10° N
deb Chang Zheng 4 3.7 10:18:18 10° N 10:22:28 52° WNW 10:26:34 10° SSW
Cosmos 1802 Rocket 4.2 10:16:51 10° N 10:23:04 76° E 10:29:21 10° S
SL-8 R/B 4.1 10:18:38 10° NW 10:23:22 62° NE 10:28:05 10° ESE
Cosmos 2360 Rocket 2.2 10:18:10 10° SSW 10:23:45 61° WNW 10:29:22 10° NNE
ADEOS Rocket 3.2 10:18:38 10° S 10:25:40 65° WSW 10:32:00 10° NNW
METEOR-M 4.1 10:22:04 10° NNE 10:27:26 88° WNW 10:32:46 10° SSW
Cosmos 1898 Rocket 3.6 10:23:03 10° NNW 10:28:12 56° WSW 10:33:22 10° S
ATLAS 2AS CENTAUR R/B 4.0 10:22:04 10° NNW 10:28:59 44° NE 10:35:22 10° SE
Cosmos 1666 3.5 10:28:03 10° NNW 10:31:20 28° W 10:34:36 10° SSW
Cosmos 2123 Rocket 4.0 10:26:15 10° S 10:32:29 89° W 10:38:47 10° N
Cosmos 1459 Rocket 3.9 10:26:45 10° N 10:32:47 71° W 10:38:45 10° S
SAR-Lupe-4 3.4 10:30:45 10° S 10:34:18 71° WSW 10:37:54 10° NNW
Cosmos 2242 Rocket 3.8 10:30:04 10° S 10:34:26 74° E 10:38:49 10° N
Cosmos 2208 Rocket 4.3 10:32:00 10° SW 10:37:02 46° WNW 10:42:03 10° N
USA 234 3.3 10:31:09 10° SSE 10:37:36 65° SW 10:44:05 10° NW
Okean 1-7 4.0 10:34:09 10° SSE 10:38:16 51° E 10:42:23 10° NNE
Cosmos 858 Rocket 4.4 10:33:32 10° NNW 10:38:40 65° WSW 10:43:48 10° S
FENGYUN 3A 3.8 10:33:37 10° N 10:38:53 55° WNW 10:44:08 10° SSW
Cosmos 2322 Rocket 3.4 10:37:25 13° WSW 10:41:04 22° WNW 10:45:26 10° N
SAR-Lupe-1 4.2 10:43:02 10° S 10:46:28 48° W 10:49:56 10° NNW
Cosmos 2263 Rocket 3.1 10:42:32 10° NW 10:47:04 25° WSW 10:51:38 10° SSW
SL-4 R/B 4.2 10:44:22 10° WNW 10:47:19 16° NNW 10:50:19 10° NNE
SKYMED 2 4.1 10:44:03 10° SSE 10:48:19 65° ENE 10:52:38 10° N
BREEZE-M DEB (TANK) 4.1 10:45:41 10° SW 10:49:25 89° SSE 11:02:51 10° NE
SL-16 R/B 3.9 10:47:36 10° W 10:50:41 15° WNW 10:53:47 10° NNW
Cosmos 1733 Rocket 3.5 10:48:27 10° NNW 10:52:26 37° W 10:56:24 10° SSW
Cosmos 1844 Rocket 3.4 10:47:44 10° NNW 10:53:19 62° ENE 10:58:54 10° SSE
Cosmos 1937 Rocket 3.8 10:48:43 10° NNW 10:53:34 44° WSW 10:58:23 10° S
CZ-2C R/B 4.3 10:57:43 10° NW 10:59:51 13° WNW 11:01:59 10° W
Meteor 2-4 Rocket 4.3 10:55:49 10° S 11:01:17 64° E 11:06:38 10° NNE
Gbstr 26 Del rocket 4.3 10:57:50 10° NW 11:05:36 81° SW 11:12:07 10° SE
